Simultaneous Nadir Overpasses (SNOs) Predictions

Prediction of SNOs between AQUA and METOP-B Satellite Orbit:

Table of predicted SNOs for the next 14.0 days since TLE Epoch: 8/4/2018
Index Date (AQUA) Time (AQUA) Lat,Lon (AQUA) SZA (AQUA ) Date (METOP-B) Time (METOP-B) Lat,Lon (METOP-B) SZA (METOP-B ) Distance(km) Time Diff (sec)
1 08/06/2018 07:29:48 -73.99,-118.46 122.62 08/06/2018 07:29:20 -74.00,-118.35 122.62 3.29 28
2 08/06/2018 08:19:16 74.04, 49.07 57.44 08/06/2018 08:19:59 74.05, 49.10 57.44 0.90 43
3 08/09/2018 03:04:01 -73.99, -52.00 121.84 08/09/2018 03:03:40 -73.98, -51.99 121.84 0.58 21
4 08/09/2018 03:53:29 74.03, 115.53 58.22 08/09/2018 03:54:19 74.02, 115.45 58.21 2.86 50
5 08/11/2018 21:48:36 73.40,-151.94 58.35 08/11/2018 21:47:29 73.37,-154.32 58.43 75.79 67
6 08/11/2018 22:38:13 -73.98, 14.46 121.03 08/11/2018 22:37:59 -73.96, 14.38 121.04 3.14 14
7 08/11/2018 23:27:41 74.03,-178.01 59.04 08/11/2018 23:28:37 74.05,-178.08 59.05 2.90 56
8 08/14/2018 17:22:54 73.66, -86.04 59.48 08/14/2018 17:21:44 73.60, -87.40 59.48 43.09 70
9 08/14/2018 18:12:26 -73.98, 80.90 120.18 08/14/2018 18:12:18 -73.99, 80.86 120.16 1.88 8
10 08/14/2018 19:01:55 74.08,-111.68 59.94 08/14/2018 19:02:56 74.07,-111.61 59.93 2.32 61
11 08/17/2018 12:57:11 73.87, -20.06 60.58 08/17/2018 12:55:59 73.82, -20.47 60.56 13.92 72
12 08/17/2018 13:46:39 -73.98, 147.34 119.29 08/17/2018 13:46:38 -73.97, 147.22 119.30 3.90 1




NCC Satellite Simultaneous Nadir Overpasses (SNOs) Prediction Service
